Time,TemperatureF,DewpointF,PressureIn,WindDirection,WindDirectionDegrees,WindSpeedMPH,WindSpeedGustMPH,Humidity,HourlyPrecipIn,Conditions,Clouds,dailyrainin,SoftwareType,DateUTC
2013-02-08 00:00:00,35.6,26.5,30.18,NE,45,2.5,4.3,69,0.00,,,0.00,WUHU216HW,2013-02-08 05:00:00,
2013-02-08 00:05:00,35.5,26.3,30.17,East,90,3.8,4.7,69,0.00,,,0.00,WUHU216HW,2013-02-08 05:05:00,
2013-02-08 00:10:00,35.5,26.6,30.17,ENE,68,4.0,4.7,70,0.00,,,0.00,WUHU216HW,2013-02-08 05:10:00,
2013-02-08 00:15:00,35.5,26.6,30.17,ENE,68,4.0,5.1,70,0.00,,,0.00,WUHU216HW,2013-02-08 05:15:00,
2013-02-08 00:20:00,35.5,26.6,30.16,East,90,4.0,6.7,70,0.00,,,0.00,WUHU216HW,2013-02-08 05:20:00,
2013-02-08 00:25:00,35.5,27.0,30.16,East,90,4.0,6.7,71,0.00,,,0.00,WUHU216HW,2013-02-08 05:25:00,
2013-02-08 00:30:00,35.3,26.8,30.16,ENE,68,2.7,4.9,71,0.00,,,0.00,WUHU216HW,2013-02-08 05:30:00,
2013-02-08 00:35:00,35.5,27.0,30.15,ENE,68,2.5,4.7,71,0.00,,,0.00,WUHU216HW,2013-02-08 05:35:00,
2013-02-08 00:40:00,35.5,27.0,30.15,East,90,3.4,4.7,71,0.00,,,0.00,WUHU216HW,2013-02-08 05:40:00,
2013-02-08 00:45:00,35.5,27.0,30.15,ESE,113,2.2,4.7,71,0.00,,,0.00,WUHU216HW,2013-02-08 05:45:00,
2013-02-08 00:50:00,35.5,27.0,30.14,NE,45,2.5,4.7,71,0.00,,,0.00,WUHU216HW,2013-02-08 05:50:00,
2013-02-08 00:55:00,35.5,27.0,30.14,ENE,68,1.8,3.8,71,0.00,,,0.00,WUHU216HW,2013-02-08 05:55:00,
2013-02-08 01:00:00,35.3,26.8,30.14,NE,45,1.1,3.1,71,0.00,,,0.00,WUHU216HW,2013-02-08 06:00:00,
2013-02-08 01:05:00,35.1,26.7,30.14,ENE,68,2.9,3.1,71,0.00,,,0.00,WUHU216HW,2013-02-08 06:05:00,
2013-02-08 01:10:00,35.1,26.7,30.13,NE,45,1.8,3.8,71,0.00,,,0.00,WUHU216HW,2013-02-08 06:10:00,
2013-02-08 01:15:00,34.9,26.5,30.13,NNE,23,3.8,3.8,71,0.00,,,0.00,WUHU216HW,2013-02-08 06:15:00,
2013-02-08 01:20:00,34.9,26.7,30.13,ENE,68,2.5,4.0,72,0.00,,,0.00,WUHU216HW,2013-02-08 06:20:00,
2013-02-08 01:25:00,34.9,26.7,30.12,East,90,2.0,4.0,72,0.00,,,0.00,WUHU216HW,2013-02-08 06:25:00,
2013-02-08 01:30:00,34.9,26.7,30.12,East,90,1.1,2.5,72,0.00,,,0.00,WUHU216HW,2013-02-08 06:30:00,
2013-02-08 01:35:00,34.9,27.1,30.12,East,90,2.2,3.4,73,0.00,,,0.00,WUHU216HW,2013-02-08 06:35:00,
2013-02-08 01:40:00,34.9,27.7,30.12,ESE,113,3.1,4.7,75,0.00,,,0.00,WUHU216HW,2013-02-08 06:40:00,
2013-02-08 01:45:00,34.9,27.7,30.11,ESE,113,2.7,4.9,75,0.00,,,0.00,WUHU216HW,2013-02-08 06:45:00,
2013-02-08 01:50:00,34.7,27.9,30.11,ESE,113,4.9,5.6,76,0.00,,,0.00,WUHU216HW,2013-02-08 06:50:00,
2013-02-08 01:55:00,34.6,27.7,30.10,ESE,113,4.7,5.8,76,0.00,,,0.00,WUHU216HW,2013-02-08 06:55:00,
2013-02-08 02:00:00,34.6,27.7,30.10,East,90,3.8,6.3,76,0.00,,,0.00,WUHU216HW,2013-02-08 07:00:00,
2013-02-08 02:05:00,34.6,28.0,30.10,ENE,68,2.7,6.3,77,0.00,,,0.00,WUHU216HW,2013-02-08 07:05:00,
2013-02-08 02:10:00,34.4,27.8,30.10,SE,135,5.4,7.2,77,0.00,,,0.00,WUHU216HW,2013-02-08 07:10:00,
2013-02-08 02:15:00,34.4,28.2,30.10,ENE,68,5.6,7.2,78,0.00,,,0.00,WUHU216HW,2013-02-08 07:15:00,
2013-02-08 02:20:00,34.2,28.0,30.10,ESE,113,4.0,6.7,78,0.00,,,0.00,WUHU216HW,2013-02-08 07:20:00,
2013-02-08 02:25:00,34.2,28.0,30.10,ENE,68,2.5,6.3,78,0.00,,,0.00,WUHU216HW,2013-02-08 07:25:00,
2013-02-08 02:30:00,34.2,28.3,30.10,ENE,68,5.4,6.3,79,0.00,,,0.00,WUHU216HW,2013-02-08 07:30:00,
2013-02-08 02:35:00,34.2,28.3,30.10,ESE,113,2.0,5.4,79,0.00,,,0.00,WUHU216HW,2013-02-08 07:35:00,
2013-02-08 02:40:00,34.2,28.6,30.10,ESE,113,1.6,5.4,80,0.00,,,0.00,WUHU216HW,2013-02-08 07:40:00,
2013-02-08 02:45:00,34.2,28.6,30.09,ENE,68,1.3,3.4,80,0.00,,,0.00,WUHU216HW,2013-02-08 07:45:00,
2013-02-08 02:50:00,34.2,28.6,30.09,ENE,68,1.1,5.1,80,0.00,,,0.00,WUHU216HW,2013-02-08 07:50:00,
2013-02-08 02:56:00,34.0,28.7,30.08,SE,135,1.3,5.1,81,0.00,,,0.00,WUHU216HW,2013-02-08 07:56:00,
2013-02-08 03:01:00,33.8,28.5,30.09,ESE,113,0.4,2.7,81,0.00,,,0.00,WUHU216HW,2013-02-08 08:01:00,
2013-02-08 03:06:00,33.7,28.7,30.08,ESE,113,1.6,2.7,82,0.00,,,0.00,WUHU216HW,2013-02-08 08:06:00,
2013-02-08 03:11:00,33.5,28.3,30.08,ENE,68,0.9,1.6,81,0.00,,,0.00,WUHU216HW,2013-02-08 08:11:00,
2013-02-08 03:16:00,33.5,28.8,30.08,East,90,0.4,1.3,83,0.00,,,0.00,WUHU216HW,2013-02-08 08:16:00,
2013-02-08 03:21:00,33.3,28.4,30.08,ENE,68,0.7,1.1,82,0.00,,,0.00,WUHU216HW,2013-02-08 08:21:00,
2013-02-08 03:26:00,33.1,28.2,30.08,North,0,0.0,1.1,82,0.00,,,0.00,WUHU216HW,2013-02-08 08:26:00,
2013-02-08 03:31:00,33.1,27.9,30.07,NE,45,0.7,1.1,81,0.00,,,0.00,WUHU216HW,2013-02-08 08:31:00,
2013-02-08 03:36:00,32.9,27.7,30.07,ENE,68,0.9,1.1,81,0.00,,,0.00,WUHU216HW,2013-02-08 08:36:00,
2013-02-08 03:41:00,32.8,28.2,30.07,NE,45,2.0,2.0,83,0.00,,,0.00,WUHU216HW,2013-02-08 08:41:00,
2013-02-08 03:46:00,32.8,27.9,30.07,NE,45,1.8,2.0,82,0.00,,,0.00,WUHU216HW,2013-02-08 08:46:00,
2013-02-08 03:51:00,32.4,28.7,30.06,ENE,68,2.2,2.2,86,0.00,,,0.00,WUHU216HW,2013-02-08 08:51:00,
2013-02-08 03:56:00,32.4,28.1,30.06,ENE,68,2.5,2.5,84,0.00,,,0.00,WUHU216HW,2013-02-08 08:56:00,
2013-02-08 04:01:00,32.2,28.3,30.06,NE,45,1.1,2.5,85,0.00,,,0.00,WUHU216HW,2013-02-08 09:01:00,
2013-02-08 04:06:00,32.0,28.1,30.06,NE,45,2.2,2.5,85,0.00,,,0.00,WUHU216HW,2013-02-08 09:06:00,
2013-02-08 04:11:00,32.0,28.4,30.06,NNE,23,1.1,2.5,86,0.00,,,0.00,WUHU216HW,2013-02-08 09:11:00,
2013-02-08 04:16:00,32.0,28.4,30.06,NE,45,1.3,2.5,86,0.00,,,0.00,WUHU216HW,2013-02-08 09:16:00,
2013-02-08 04:21:00,31.9,28.2,30.05,NE,45,0.7,2.2,86,0.00,,,0.00,WUHU216HW,2013-02-08 09:21:00,
2013-02-08 04:26:00,31.9,28.2,30.06,NE,45,1.3,1.8,86,0.00,,,0.00,WUHU216HW,2013-02-08 09:26:00,
2013-02-08 04:31:00,31.9,28.2,30.05,NNW,338,0.4,2.2,86,0.00,,,0.00,WUHU216HW,2013-02-08 09:31:00,
2013-02-08 04:36:00,31.7,28.0,30.05,NNE,23,1.1,2.2,86,0.00,,,0.00,WUHU216HW,2013-02-08 09:36:00,
2013-02-08 04:41:00,31.7,28.0,30.05,NNE,23,2.5,3.4,86,0.00,,,0.00,WUHU216HW,2013-02-08 09:41:00,
2013-02-08 04:46:00,31.5,28.5,30.05,NE,45,3.4,4.0,88,0.00,,,0.00,WUHU216HW,2013-02-08 09:46:00,
2013-02-08 04:51:00,31.3,28.3,30.04,NNE,23,1.1,4.0,88,0.00,,,0.00,WUHU216HW,2013-02-08 09:51:00,
2013-02-08 04:56:00,31.3,27.9,30.04,NE,45,2.5,4.0,87,0.00,,,0.00,WUHU216HW,2013-02-08 09:56:00,
2013-02-08 05:01:00,31.3,28.3,30.04,NNE,23,1.6,2.7,88,0.00,,,0.00,WUHU216HW,2013-02-08 10:01:00,
2013-02-08 05:06:00,31.3,28.3,30.04,North,0,0.0,2.5,88,0.00,,,0.00,WUHU216HW,2013-02-08 10:06:00,
2013-02-08 05:11:00,31.1,28.1,30.04,NE,45,1.8,2.5,88,0.00,,,0.00,WUHU216HW,2013-02-08 10:11:00,
2013-02-08 05:16:00,31.1,28.1,30.03,NE,45,0.4,1.8,88,0.00,,,0.00,WUHU216HW,2013-02-08 10:16:00,
2013-02-08 05:21:00,31.1,27.7,30.03,North,0,0.2,1.8,87,0.00,,,0.00,WUHU216HW,2013-02-08 10:21:00,
2013-02-08 05:26:00,31.1,27.7,30.03,NE,45,0.4,1.3,87,0.00,,,0.00,WUHU216HW,2013-02-08 10:26:00,
2013-02-08 05:31:00,31.1,27.7,30.03,NNE,23,1.1,1.3,87,0.00,,,0.00,WUHU216HW,2013-02-08 10:31:00,
2013-02-08 05:36:00,31.1,27.7,30.03,North,0,0.4,1.8,87,0.00,,,0.00,WUHU216HW,2013-02-08 10:36:00,
2013-02-08 05:41:00,31.1,27.7,30.03,NNE,23,0.4,1.8,87,0.00,,,0.00,WUHU216HW,2013-02-08 10:41:00,
2013-02-08 05:46:00,31.1,27.5,30.03,NNW,338,0.0,0.7,86,0.00,,,0.00,WUHU216HW,2013-02-08 10:46:00,
2013-02-08 05:51:00,31.1,27.5,30.03,North,0,0.9,0.9,86,0.00,,,0.00,WUHU216HW,2013-02-08 10:51:00,
2013-02-08 05:56:00,31.1,27.5,30.03,North,0,0.4,1.1,86,0.00,,,0.00,WUHU216HW,2013-02-08 10:56:00,
2013-02-08 06:01:00,31.1,27.5,30.02,North,0,0.2,1.1,86,0.00,,,0.00,WUHU216HW,2013-02-08 11:01:00,
2013-02-08 06:06:00,31.1,27.5,30.02,NNE,23,0.4,1.1,86,0.00,,,0.00,WUHU216HW,2013-02-08 11:06:00,
2013-02-08 06:11:00,31.1,27.5,30.02,North,0,1.1,1.1,86,0.00,,,0.00,WUHU216HW,2013-02-08 11:11:00,
2013-02-08 06:16:00,31.1,27.7,30.02,North,0,0.9,2.5,87,0.00,,,0.00,WUHU216HW,2013-02-08 11:16:00,
2013-02-08 06:21:00,31.1,27.7,30.02,NE,45,0.4,2.5,87,0.00,,,0.00,WUHU216HW,2013-02-08 11:21:00,
2013-02-08 06:26:00,31.3,27.9,30.01,NNE,23,0.0,2.0,87,0.00,,,0.00,WUHU216HW,2013-02-08 11:26:00,
2013-02-08 06:31:00,31.3,27.9,30.01,NNE,23,1.3,2.2,87,0.00,,,0.00,WUHU216HW,2013-02-08 11:31:00,
2013-02-08 06:36:00,31.3,27.9,30.01,NE,45,1.8,2.7,87,0.00,,,0.00,WUHU216HW,2013-02-08 11:36:00,
2013-02-08 06:41:00,31.3,28.3,30.01,NE,45,1.8,2.7,88,0.00,,,0.00,WUHU216HW,2013-02-08 11:41:00,
2013-02-08 06:46:00,31.3,28.3,30.01,NNE,23,1.1,2.2,88,0.00,,,0.00,WUHU216HW,2013-02-08 11:46:00,
2013-02-08 06:51:00,31.3,28.3,30.00,NE,45,1.6,2.0,88,0.00,,,0.00,WUHU216HW,2013-02-08 11:51:00,
2013-02-08 06:56:00,31.3,28.5,29.99,NE,45,1.8,2.0,89,0.00,,,0.00,WUHU216HW,2013-02-08 11:56:00,
2013-02-08 07:01:00,31.3,28.5,29.99,ENE,68,2.5,2.5,89,0.00,,,0.00,WUHU216HW,2013-02-08 12:01:00,
2013-02-08 07:06:00,31.3,28.8,29.99,ENE,68,1.8,2.5,90,0.00,,,0.00,WUHU216HW,2013-02-08 12:06:00,
2013-02-08 07:11:00,31.3,28.5,29.98,North,0,0.4,2.5,89,0.00,,,0.00,WUHU216HW,2013-02-08 12:11:00,
2013-02-08 07:16:00,31.1,28.4,29.98,NE,45,0.0,2.2,89,0.00,,,0.00,WUHU216HW,2013-02-08 12:16:00,
2013-02-08 07:21:00,31.3,28.5,29.98,NE,45,0.0,0.4,89,0.00,,,0.00,WUHU216HW,2013-02-08 12:21:00,
2013-02-08 07:26:00,31.3,28.3,29.98,NNE,23,0.0,0.4,88,0.00,,,0.00,WUHU216HW,2013-02-08 12:26:00,
2013-02-08 07:31:00,31.3,28.3,29.98,NNE,23,0.4,0.4,88,0.00,,,0.00,WUHU216HW,2013-02-08 12:31:00,
2013-02-08 07:36:00,31.3,28.3,29.98,NNE,23,0.0,1.1,88,0.00,,,0.00,WUHU216HW,2013-02-08 12:36:00,
2013-02-08 07:41:00,31.3,28.3,29.99,NNW,338,0.2,1.1,88,0.00,,,0.00,WUHU216HW,2013-02-08 12:41:00,
2013-02-08 07:46:00,31.3,28.3,29.99,NNW,338,0.4,0.4,88,0.00,,,0.00,WUHU216HW,2013-02-08 12:46:00,
2013-02-08 07:51:00,31.5,28.5,29.99,North,0,0.2,1.1,88,0.00,,,0.00,WUHU216HW,2013-02-08 12:51:00,
2013-02-08 07:56:00,31.5,28.5,29.99,North,0,0.0,1.1,88,0.00,,,0.00,WUHU216HW,2013-02-08 12:56:00,
2013-02-08 08:01:00,31.5,28.5,29.99,North,0,0.4,1.1,88,0.00,,,0.00,WUHU216HW,2013-02-08 13:01:00,
2013-02-08 08:06:00,31.7,28.6,29.98,NE,45,0.2,1.1,88,0.00,,,0.00,WUHU216HW,2013-02-08 13:06:00,
2013-02-08 08:11:00,31.7,28.6,29.98,NW,315,0.2,0.9,88,0.00,,,0.00,WUHU216HW,2013-02-08 13:11:00,
2013-02-08 08:16:00,31.9,28.4,29.98,NE,45,0.0,0.9,87,0.00,,,0.00,WUHU216HW,2013-02-08 13:16:00,
2013-02-08 08:21:00,31.9,28.4,29.97,NNE,23,0.2,0.9,87,0.00,,,0.00,WUHU216HW,2013-02-08 13:21:00,
2013-02-08 08:26:00,32.0,28.6,29.97,NNW,338,0.0,1.8,87,0.00,,,0.00,WUHU216HW,2013-02-08 13:26:00,
2013-02-08 08:31:00,32.0,28.6,29.97,North,0,0.0,1.8,87,0.00,,,0.00,WUHU216HW,2013-02-08 13:31:00,
2013-02-08 08:36:00,32.0,28.6,29.97,North,0,0.0,1.8,87,0.00,,,0.00,WUHU216HW,2013-02-08 13:36:00,
2013-02-08 08:41:00,32.0,28.6,29.97,NE,45,0.4,1.8,87,0.00,,,0.00,WUHU216HW,2013-02-08 13:41:00,
2013-02-08 08:46:00,32.0,28.6,29.97,NNE,23,0.9,2.5,87,0.00,,,0.00,WUHU216HW,2013-02-08 13:46:00,
2013-02-08 08:51:00,32.0,28.6,29.96,NE,45,0.9,2.9,87,0.00,,,0.00,WUHU216HW,2013-02-08 13:51:00,
2013-02-08 08:56:00,32.0,28.6,29.96,North,0,0.2,2.9,87,0.00,,,0.00,WUHU216HW,2013-02-08 13:56:00,
2013-02-08 09:01:00,32.0,28.6,29.96,NE,45,2.7,2.7,87,0.00,,,0.00,WUHU216HW,2013-02-08 14:01:00,
2013-02-08 09:06:00,32.0,28.6,29.95,NNE,23,1.8,2.7,87,0.00,,,0.00,WUHU216HW,2013-02-08 14:06:00,
2013-02-08 09:11:00,32.2,28.8,29.95,NNE,23,0.9,2.7,87,0.00,,,0.00,WUHU216HW,2013-02-08 14:11:00,
2013-02-08 09:16:00,32.4,29.0,29.95,NNE,23,1.1,2.0,87,0.00,,,0.00,WUHU216HW,2013-02-08 14:16:00,
2013-02-08 09:20:00,32.4,29.0,29.94,NE,45,1.3,2.0,87,0.00,,,0.00,WUHU216HW,2013-02-08 14:20:00,
2013-02-08 09:26:00,32.6,29.2,29.94,NE,45,1.8,2.2,87,0.00,,,0.00,WUHU216HW,2013-02-08 14:26:00,
2013-02-08 09:31:00,32.8,29.4,29.94,NE,45,1.8,2.7,87,0.00,,,0.00,WUHU216HW,2013-02-08 14:31:00,
2013-02-08 09:36:00,32.9,29.4,29.94,ENE,68,1.1,2.7,87,0.00,,,0.00,WUHU216HW,2013-02-08 14:36:00,
2013-02-08 09:41:00,32.9,29.4,29.94,North,0,0.4,1.8,87,0.00,,,0.00,WUHU216HW,2013-02-08 14:41:00,
2013-02-08 09:46:00,33.3,29.5,29.93,NE,45,0.0,1.1,86,0.00,,,0.00,WUHU216HW,2013-02-08 14:46:00,
2013-02-08 09:51:00,33.5,29.7,29.93,NE,45,1.8,2.2,86,0.00,,,0.00,WUHU216HW,2013-02-08 14:51:00,
2013-02-08 09:56:00,33.5,29.7,29.92,NNE,23,0.7,2.2,86,0.00,,,0.00,WUHU216HW,2013-02-08 14:56:00,
2013-02-08 10:01:00,33.8,30.0,29.92,NE,45,0.0,2.2,86,0.00,,,0.00,WUHU216HW,2013-02-08 15:01:00,
2013-02-08 10:06:00,34.2,30.3,29.92,North,0,0.9,1.8,86,0.00,,,0.00,WUHU216HW,2013-02-08 15:06:00,
2013-02-08 10:11:00,34.2,30.1,29.92,West,270,0.0,1.1,85,0.00,,,0.00,WUHU216HW,2013-02-08 15:11:00,
2013-02-08 10:16:00,34.4,30.2,29.92,NNE,23,0.0,1.1,85,0.00,,,0.00,WUHU216HW,2013-02-08 15:16:00,
2013-02-08 10:21:00,34.4,30.2,29.92,NNE,23,0.0,0.7,85,0.00,,,0.00,WUHU216HW,2013-02-08 15:21:00,
2013-02-08 10:26:00,34.4,30.2,29.91,ENE,68,1.8,1.8,85,0.00,,,0.00,WUHU216HW,2013-02-08 15:26:00,
2013-02-08 10:31:00,34.2,30.1,29.91,ENE,68,3.4,3.4,85,0.00,,,0.00,WUHU216HW,2013-02-08 15:31:00,
2013-02-08 10:36:00,34.0,29.9,29.91,NNE,23,1.1,3.4,85,0.00,,,0.00,WUHU216HW,2013-02-08 15:36:00,
2013-02-08 10:41:00,34.2,30.3,29.91,ESE,113,0.9,2.7,86,0.00,,,0.00,WUHU216HW,2013-02-08 15:41:00,
2013-02-08 10:46:00,34.0,30.2,29.91,East,90,0.4,1.8,86,0.00,,,0.00,WUHU216HW,2013-02-08 15:46:00,
2013-02-08 10:51:00,34.2,30.1,29.90,NNE,23,0.0,2.5,85,0.00,,,0.00,WUHU216HW,2013-02-08 15:51:00,
2013-02-08 10:56:00,34.2,30.1,29.90,ENE,68,0.0,2.5,85,0.00,,,0.00,WUHU216HW,2013-02-08 15:56:00,
2013-02-08 11:01:00,34.6,30.4,29.89,NE,45,1.1,1.8,85,0.01,,,0.01,WUHU216HW,2013-02-08 16:01:00,
2013-02-08 11:06:00,34.6,30.4,29.89,SSE,158,0.2,1.1,85,0.01,,,0.01,WUHU216HW,2013-02-08 16:06:00,
2013-02-08 11:11:00,34.6,30.4,29.90,NNW,338,0.0,1.1,85,0.02,,,0.02,WUHU216HW,2013-02-08 16:11:00,
2013-02-08 11:16:00,34.7,30.6,29.89,ENE,68,0.0,0.4,85,0.02,,,0.02,WUHU216HW,2013-02-08 16:16:00,
2013-02-08 11:21:00,34.7,30.6,29.89,SSW,203,0.7,0.7,85,0.02,,,0.02,WUHU216HW,2013-02-08 16:21:00,
2013-02-08 11:26:00,34.7,30.6,29.88,SE,135,0.2,0.9,85,0.03,,,0.03,WUHU216HW,2013-02-08 16:26:00,
2013-02-08 11:31:00,35.3,31.1,29.88,SW,225,0.0,1.1,85,0.03,,,0.03,WUHU216HW,2013-02-08 16:31:00,
2013-02-08 11:36:00,35.5,31.3,29.87,SE,135,0.4,1.1,85,0.03,,,0.03,WUHU216HW,2013-02-08 16:36:00,
2013-02-08 11:41:00,35.3,31.1,29.86,SSE,158,2.2,2.9,85,0.04,,,0.04,WUHU216HW,2013-02-08 16:41:00,
2013-02-08 11:46:00,35.1,31.2,29.86,SE,135,1.1,3.8,86,0.04,,,0.04,WUHU216HW,2013-02-08 16:46:00,
2013-02-08 11:51:00,35.3,31.4,29.85,ESE,113,2.5,3.8,86,0.04,,,0.04,WUHU216HW,2013-02-08 16:51:00,
2013-02-08 11:56:00,35.3,31.4,29.85,East,90,2.0,3.4,86,0.04,,,0.05,WUHU216HW,2013-02-08 16:56:00,
2013-02-08 12:01:00,35.6,31.8,29.85,ESE,113,0.4,2.5,86,0.04,,,0.05,WUHU216HW,2013-02-08 17:01:00,
2013-02-08 12:06:00,35.5,31.6,29.86,WSW,248,0.9,2.0,86,0.04,,,0.05,WUHU216HW,2013-02-08 17:06:00,
2013-02-08 12:11:00,35.5,31.6,29.86,WSW,248,1.1,3.1,86,0.03,,,0.05,WUHU216HW,2013-02-08 17:11:00,
2013-02-08 12:16:00,35.5,31.9,29.86,SW,225,2.5,3.1,87,0.03,,,0.05,WUHU216HW,2013-02-08 17:16:00,
2013-02-08 12:21:00,35.5,32.2,29.86,WSW,248,1.8,3.4,88,0.02,,,0.05,WUHU216HW,2013-02-08 17:21:00,
2013-02-08 12:26:00,35.6,32.0,29.86,NW,315,2.7,3.6,87,0.02,,,0.05,WUHU216HW,2013-02-08 17:26:00,
2013-02-08 12:31:00,35.5,31.9,29.85,SW,225,0.2,3.6,87,0.02,,,0.05,WUHU216HW,2013-02-08 17:31:00,
2013-02-08 12:36:00,35.5,31.6,29.85,WSW,248,0.9,3.4,86,0.02,,,0.06,WUHU216HW,2013-02-08 17:36:00,
2013-02-08 12:41:00,35.5,31.6,29.85,SW,225,1.8,2.0,86,0.02,,,0.06,WUHU216HW,2013-02-08 17:41:00,
2013-02-08 12:46:00,35.6,31.8,29.85,SSW,203,0.7,2.0,86,0.02,,,0.06,WUHU216HW,2013-02-08 17:46:00,
2013-02-08 12:51:00,35.8,32.6,29.84,SSE,158,0.9,1.8,88,0.02,,,0.06,WUHU216HW,2013-02-08 17:51:00,
2013-02-08 12:56:00,36.0,32.8,29.84,WSW,248,0.2,1.8,88,0.01,,,0.06,WUHU216HW,2013-02-08 17:56:00,
2013-02-08 13:01:00,36.0,32.4,29.84,WSW,248,1.6,1.8,87,0.01,,,0.06,WUHU216HW,2013-02-08 18:01:00,
2013-02-08 13:06:00,36.0,32.8,29.84,SSW,203,1.8,2.2,88,0.01,,,0.06,WUHU216HW,2013-02-08 18:06:00,
2013-02-08 13:11:00,36.0,32.4,29.83,SSW,203,2.2,2.5,87,0.01,,,0.06,WUHU216HW,2013-02-08 18:11:00,
2013-02-08 13:16:00,35.8,32.2,29.83,SE,135,0.0,2.5,87,0.01,,,0.06,WUHU216HW,2013-02-08 18:16:00,
2013-02-08 13:21:00,35.6,32.4,29.84,WSW,248,0.7,2.2,88,0.01,,,0.06,WUHU216HW,2013-02-08 18:21:00,
2013-02-08 13:26:00,35.6,32.0,29.83,SSW,203,0.7,1.8,87,0.01,,,0.06,WUHU216HW,2013-02-08 18:26:00,
2013-02-08 13:31:00,35.5,32.2,29.82,SSW,203,0.9,1.8,88,0.01,,,0.06,WUHU216HW,2013-02-08 18:31:00,
2013-02-08 13:36:00,35.6,32.4,29.82,SSW,203,0.0,1.3,88,0.00,,,0.06,WUHU216HW,2013-02-08 18:36:00,
2013-02-08 13:41:00,35.6,32.4,29.82,WSW,248,1.1,1.1,88,0.00,,,0.06,WUHU216HW,2013-02-08 18:41:00,
2013-02-08 13:46:00,35.6,32.4,29.81,SSE,158,1.1,1.3,88,0.00,,,0.06,WUHU216HW,2013-02-08 18:46:00,
2013-02-08 13:51:00,35.6,32.4,29.81,SE,135,0.2,1.3,88,0.00,,,0.06,WUHU216HW,2013-02-08 18:51:00,
2013-02-08 13:56:00,35.6,32.4,29.81,SW,225,1.1,1.3,88,0.00,,,0.06,WUHU216HW,2013-02-08 18:56:00,
2013-02-08 14:01:00,35.6,32.4,29.81,SW,225,0.7,1.8,88,0.00,,,0.06,WUHU216HW,2013-02-08 19:01:00,
2013-02-08 14:06:00,35.8,32.9,29.81,West,270,1.3,2.0,89,0.00,,,0.06,WUHU216HW,2013-02-08 19:06:00,
2013-02-08 14:11:00,35.8,32.6,29.81,SSW,203,0.4,2.0,88,0.00,,,0.06,WUHU216HW,2013-02-08 19:11:00,
2013-02-08 14:16:00,35.6,32.7,29.81,SSW,203,0.7,1.8,89,0.00,,,0.06,WUHU216HW,2013-02-08 19:16:00,
2013-02-08 14:21:00,35.8,32.6,29.81,WNW,293,0.9,1.8,88,0.00,,,0.06,WUHU216HW,2013-02-08 19:21:00,
2013-02-08 14:26:00,35.8,32.6,29.81,NNW,338,1.3,1.8,88,0.00,,,0.06,WUHU216HW,2013-02-08 19:26:00,
2013-02-08 14:31:00,35.8,32.9,29.81,West,270,1.3,1.8,89,0.00,,,0.06,WUHU216HW,2013-02-08 19:31:00,
2013-02-08 14:36:00,36.0,33.0,29.80,WSW,248,1.8,1.8,89,0.00,,,0.06,WUHU216HW,2013-02-08 19:36:00,
2013-02-08 14:41:00,36.2,33.2,29.80,WNW,293,1.6,1.8,89,0.00,,,0.06,WUHU216HW,2013-02-08 19:41:00,
2013-02-08 14:46:00,36.4,33.4,29.80,SW,225,0.4,2.5,89,0.00,,,0.06,WUHU216HW,2013-02-08 19:46:00,
2013-02-08 14:51:00,36.4,33.1,29.80,SW,225,1.1,2.5,88,0.00,,,0.06,WUHU216HW,2013-02-08 19:51:00,
2013-02-08 14:56:00,36.4,33.4,29.80,WSW,248,2.0,2.0,89,0.00,,,0.06,WUHU216HW,2013-02-08 19:56:00,
2013-02-08 15:01:00,36.5,33.3,29.80,West,270,1.1,2.2,88,0.01,,,0.07,WUHU216HW,2013-02-08 20:01:00,
2013-02-08 15:06:00,36.9,33.9,29.79,WSW,248,0.2,2.2,89,0.01,,,0.07,WUHU216HW,2013-02-08 20:06:00,
2013-02-08 15:11:00,37.1,33.5,29.79,WSW,248,0.9,1.6,87,0.01,,,0.07,WUHU216HW,2013-02-08 20:11:00,
2013-02-08 15:16:00,36.9,33.7,29.80,West,270,0.4,2.5,88,0.01,,,0.07,WUHU216HW,2013-02-08 20:16:00,
2013-02-08 15:21:00,37.1,34.1,29.80,West,270,1.6,2.5,89,0.01,,,0.07,WUHU216HW,2013-02-08 20:21:00,
2013-02-08 15:26:00,37.1,33.9,29.79,SSE,158,0.7,2.5,88,0.01,,,0.07,WUHU216HW,2013-02-08 20:26:00,
2013-02-08 15:31:00,37.1,33.9,29.79,SE,135,1.1,2.5,88,0.01,,,0.07,WUHU216HW,2013-02-08 20:31:00,
2013-02-08 15:36:00,37.1,33.9,29.80,WNW,293,0.9,3.4,88,0.01,,,0.07,WUHU216HW,2013-02-08 20:36:00,
2013-02-08 15:41:00,37.1,33.9,29.80,West,270,1.3,3.4,88,0.01,,,0.07,WUHU216HW,2013-02-08 20:41:00,
2013-02-08 15:46:00,37.1,33.9,29.81,WSW,248,1.8,2.2,88,0.01,,,0.07,WUHU216HW,2013-02-08 20:46:00,
2013-02-08 15:52:00,36.9,33.7,29.81,West,270,1.8,4.0,88,0.01,,,0.07,WUHU216HW,2013-02-08 20:52:00,
2013-02-08 15:57:00,36.9,33.9,29.81,West,270,2.5,4.5,89,0.00,,,0.07,WUHU216HW,2013-02-08 20:57:00,
2013-02-08 16:01:00,36.7,33.8,29.81,West,270,2.7,4.5,89,0.00,,,0.07,WUHU216HW,2013-02-08 21:01:00,
2013-02-08 16:06:00,36.9,33.9,29.81,West,270,0.0,4.0,89,0.00,,,0.07,WUHU216HW,2013-02-08 21:06:00,
2013-02-08 16:11:00,36.9,33.9,29.81,South,180,0.2,2.9,89,0.00,,,0.07,WUHU216HW,2013-02-08 21:11:00,
2013-02-08 16:17:00,37.1,34.1,29.81,WSW,248,0.0,1.3,89,0.00,,,0.07,WUHU216HW,2013-02-08 21:17:00,
2013-02-08 16:22:00,37.3,34.3,29.81,SSW,203,0.0,1.3,89,0.00,,,0.07,WUHU216HW,2013-02-08 21:22:00,
2013-02-08 16:27:00,37.3,34.3,29.81,West,270,1.3,1.6,89,0.00,,,0.07,WUHU216HW,2013-02-08 21:27:00,
2013-02-08 16:32:00,37.3,34.6,29.81,WSW,248,0.9,1.6,90,0.00,,,0.07,WUHU216HW,2013-02-08 21:32:00,
2013-02-08 16:37:00,37.3,34.3,29.81,West,270,0.9,1.8,89,0.00,,,0.07,WUHU216HW,2013-02-08 21:37:00,
2013-02-08 16:42:00,37.3,34.6,29.81,SW,225,0.4,2.0,90,0.00,,,0.07,WUHU216HW,2013-02-08 21:42:00,
2013-02-08 16:47:00,37.3,34.3,29.81,WNW,293,0.2,2.0,89,0.00,,,0.07,WUHU216HW,2013-02-08 21:47:00,
2013-02-08 16:52:00,37.3,34.3,29.81,WSW,248,0.2,1.3,89,0.00,,,0.07,WUHU216HW,2013-02-08 21:52:00,
2013-02-08 16:57:00,37.8,34.8,29.81,West,270,1.1,2.5,89,0.00,,,0.07,WUHU216HW,2013-02-08 21:57:00,
2013-02-08 17:02:00,38.3,34.5,29.81,WSW,248,6.3,9.8,86,0.00,,,0.07,WUHU216HW,2013-02-08 22:02:00,
2013-02-08 17:07:00,39.4,33.9,29.81,North,0,3.4,12.1,80,0.00,,,0.07,WUHU216HW,2013-02-08 22:07:00,
2013-02-08 17:12:00,40.1,33.5,29.81,WNW,293,5.4,12.1,77,0.00,,,0.07,WUHU216HW,2013-02-08 22:12:00,
2013-02-08 17:17:00,40.5,33.5,29.82,NW,315,2.0,14.5,76,0.00,,,0.07,WUHU216HW,2013-02-08 22:17:00,
2013-02-08 17:22:00,40.7,33.7,29.82,West,270,3.8,14.5,76,0.00,,,0.07,WUHU216HW,2013-02-08 22:22:00,
2013-02-08 17:27:00,40.7,33.0,29.82,NW,315,6.7,8.1,74,0.00,,,0.07,WUHU216HW,2013-02-08 22:27:00,
2013-02-08 17:32:00,40.7,33.0,29.82,WNW,293,4.0,10.7,74,0.00,,,0.07,WUHU216HW,2013-02-08 22:32:00,
2013-02-08 17:37:00,40.7,33.0,29.82,West,270,3.6,10.7,74,0.00,,,0.07,WUHU216HW,2013-02-08 22:37:00,
2013-02-08 17:42:00,40.7,32.7,29.83,WNW,293,6.9,6.9,73,0.00,,,0.07,WUHU216HW,2013-02-08 22:42:00,
2013-02-08 17:47:00,40.7,32.1,29.82,WNW,293,8.7,11.0,71,0.00,,,0.07,WUHU216HW,2013-02-08 22:47:00,
2013-02-08 17:52:00,40.9,31.5,29.83,NW,315,3.1,13.9,69,0.00,,,0.07,WUHU216HW,2013-02-08 22:52:00,
2013-02-08 17:57:00,40.9,30.7,29.83,West,270,13.4,13.9,67,0.00,,,0.07,WUHU216HW,2013-02-08 22:57:00,
2013-02-08 18:02:00,40.7,30.5,29.83,WNW,293,9.2,13.9,67,0.00,,,0.07,WUHU216HW,2013-02-08 23:02:00,
2013-02-08 18:07:00,40.7,30.5,29.84,NW,315,12.3,13.9,67,0.00,,,0.07,WUHU216HW,2013-02-08 23:07:00,
2013-02-08 18:12:00,40.5,30.3,29.84,West,270,10.1,13.9,67,0.00,,,0.07,WUHU216HW,2013-02-08 23:12:00,
2013-02-08 18:17:00,40.5,30.3,29.85,West,270,4.0,13.2,67,0.00,,,0.07,WUHU216HW,2013-02-08 23:17:00,
2013-02-08 18:22:00,40.3,30.2,29.85,West,270,6.3,16.6,67,0.00,,,0.07,WUHU216HW,2013-02-08 23:22:00,
2013-02-08 18:27:00,40.1,30.0,29.85,WNW,293,7.8,16.6,67,0.00,,,0.07,WUHU216HW,2013-02-08 23:27:00,
2013-02-08 18:32:00,40.0,29.4,29.86,WSW,248,6.7,11.2,66,0.00,,,0.07,WUHU216HW,2013-02-08 23:32:00,
2013-02-08 18:37:00,39.6,28.7,29.86,West,270,4.3,11.2,65,0.00,,,0.07,WUHU216HW,2013-02-08 23:37:00,
2013-02-08 18:42:00,39.4,28.2,29.86,West,270,12.1,13.6,64,0.00,,,0.07,WUHU216HW,2013-02-08 23:42:00,
2013-02-08 18:47:00,39.4,27.8,29.86,WNW,293,13.0,13.6,63,0.00,,,0.07,WUHU216HW,2013-02-08 23:47:00,
2013-02-08 18:52:00,39.2,27.6,29.86,West,270,4.0,17.0,63,0.00,,,0.07,WUHU216HW,2013-02-08 23:52:00,
2013-02-08 18:57:00,39.1,27.5,29.87,West,270,7.6,17.0,63,0.00,,,0.07,WUHU216HW,2013-02-08 23:57:00,
2013-02-08 19:02:00,39.1,27.5,29.87,West,270,5.8,16.6,63,0.00,,,0.07,WUHU216HW,2013-02-09 00:02:00,
2013-02-08 19:07:00,38.9,27.3,29.87,NW,315,6.7,16.6,63,0.00,,,0.07,WUHU216HW,2013-02-09 00:07:00,
2013-02-08 19:12:00,38.9,27.3,29.87,NW,315,8.9,17.4,63,0.00,,,0.07,WUHU216HW,2013-02-09 00:12:00,
2013-02-08 19:17:00,38.5,26.9,29.87,WSW,248,6.7,17.4,63,0.00,,,0.07,WUHU216HW,2013-02-09 00:17:00,
2013-02-08 19:22:00,38.5,26.9,29.88,WSW,248,11.2,11.2,63,0.00,,,0.07,WUHU216HW,2013-02-09 00:22:00,
2013-02-08 19:27:00,38.5,26.6,29.88,West,270,3.4,14.3,62,0.00,,,0.07,WUHU216HW,2013-02-09 00:27:00,
2013-02-08 19:32:00,38.3,26.8,29.88,WSW,248,10.5,14.3,63,0.00,,,0.07,WUHU216HW,2013-02-09 00:32:00,
2013-02-08 19:37:00,38.3,26.8,29.88,West,270,4.7,10.5,63,0.00,,,0.07,WUHU216HW,2013-02-09 00:37:00,
2013-02-08 19:42:00,38.3,26.8,29.88,West,270,3.1,13.4,63,0.00,,,0.07,WUHU216HW,2013-02-09 00:42:00,
2013-02-08 19:47:00,38.3,26.8,29.88,West,270,9.2,13.4,63,0.00,,,0.07,WUHU216HW,2013-02-09 00:47:00,
2013-02-08 19:52:00,38.3,26.8,29.88,WNW,293,10.5,11.9,63,0.00,,,0.07,WUHU216HW,2013-02-09 00:52:00,
2013-02-08 19:57:00,38.3,26.8,29.89,NW,315,7.2,14.1,63,0.00,,,0.07,WUHU216HW,2013-02-09 00:57:00,
2013-02-08 20:02:00,38.2,25.8,29.88,ESE,113,7.2,14.1,61,0.00,,,0.07,WUHU216HW,2013-02-09 01:02:00,
2013-02-08 20:07:00,38.0,26.1,29.89,WSW,248,13.0,14.1,62,0.00,,,0.07,WUHU216HW,2013-02-09 01:07:00,
2013-02-08 20:12:00,37.8,25.6,29.89,WNW,293,12.8,19.2,61,0.00,,,0.07,WUHU216HW,2013-02-09 01:12:00,
2013-02-08 20:17:00,37.4,25.6,29.89,NW,315,4.0,19.2,62,0.00,,,0.07,WUHU216HW,2013-02-09 01:17:00,
2013-02-08 20:22:00,37.1,24.9,29.90,WNW,293,5.4,15.0,61,0.00,,,0.07,WUHU216HW,2013-02-09 01:22:00,
2013-02-08 20:27:00,36.9,24.8,29.91,WSW,248,4.0,15.0,61,0.00,,,0.07,WUHU216HW,2013-02-09 01:27:00,
2013-02-08 20:32:00,36.5,24.4,29.91,West,270,5.6,12.8,61,0.00,,,0.07,WUHU216HW,2013-02-09 01:32:00,
2013-02-08 20:37:00,36.4,24.2,29.92,WNW,293,13.4,14.3,61,0.00,,,0.07,WUHU216HW,2013-02-09 01:37:00,
2013-02-08 20:42:00,36.0,24.0,29.93,WSW,248,7.6,15.7,61,0.00,,,0.07,WUHU216HW,2013-02-09 01:42:00,
2013-02-08 20:47:00,35.8,24.1,29.93,WNW,293,6.3,15.7,62,0.00,,,0.07,WUHU216HW,2013-02-09 01:47:00,
2013-02-08 20:52:00,35.6,23.9,29.93,NW,315,3.6,13.0,62,0.00,,,0.07,WUHU216HW,2013-02-09 01:52:00,
2013-02-08 20:57:00,35.5,23.4,29.94,West,270,9.8,16.8,61,0.00,,,0.07,WUHU216HW,2013-02-09 01:57:00,
2013-02-08 21:02:00,35.3,22.9,29.94,WNW,293,8.5,16.8,60,0.00,,,0.07,WUHU216HW,2013-02-09 02:02:00,
2013-02-08 21:07:00,35.1,22.7,29.94,NW,315,8.3,17.7,60,0.00,,,0.07,WUHU216HW,2013-02-09 02:07:00,
2013-02-08 21:12:00,35.1,22.7,29.94,WNW,293,6.7,17.7,60,0.00,,,0.07,WUHU216HW,2013-02-09 02:12:00,
2013-02-08 21:17:00,34.9,22.5,29.94,WNW,293,4.0,12.8,60,0.00,,,0.07,WUHU216HW,2013-02-09 02:17:00,
2013-02-08 21:22:00,34.9,22.5,29.94,NNW,338,5.1,13.0,60,0.00,,,0.07,WUHU216HW,2013-02-09 02:22:00,
2013-02-08 21:27:00,34.9,22.5,29.95,West,270,7.4,13.0,60,0.00,,,0.07,WUHU216HW,2013-02-09 02:27:00,
2013-02-08 21:32:00,34.9,22.5,29.95,WNW,293,9.4,13.9,60,0.00,,,0.07,WUHU216HW,2013-02-09 02:32:00,
2013-02-08 21:37:00,34.9,22.5,29.96,West,270,7.6,15.0,60,0.00,,,0.07,WUHU216HW,2013-02-09 02:37:00,
2013-02-08 21:42:00,34.7,22.3,29.96,WNW,293,9.2,17.7,60,0.00,,,0.07,WUHU216HW,2013-02-09 02:42:00,
2013-02-08 21:47:00,34.6,22.5,29.97,West,270,7.4,18.8,61,0.00,,,0.07,WUHU216HW,2013-02-09 02:47:00,
2013-02-08 21:52:00,34.6,22.1,29.97,NW,315,10.5,18.8,60,0.00,,,0.07,WUHU216HW,2013-02-09 02:52:00,
2013-02-08 21:57:00,34.4,22.0,29.97,NW,315,4.0,13.2,60,0.00,,,0.07,WUHU216HW,2013-02-09 02:57:00,
2013-02-08 22:02:00,34.4,22.0,29.97,WNW,293,15.0,15.0,60,0.00,,,0.07,WUHU216HW,2013-02-09 03:02:00,
2013-02-08 22:07:00,34.2,21.8,29.97,NW,315,7.6,15.0,60,0.00,,,0.07,WUHU216HW,2013-02-09 03:07:00,
2013-02-08 22:12:00,34.2,21.8,29.98,WNW,293,13.9,15.0,60,0.00,,,0.07,WUHU216HW,2013-02-09 03:12:00,
2013-02-08 22:17:00,34.2,21.8,29.98,West,270,4.3,13.9,60,0.00,,,0.07,WUHU216HW,2013-02-09 03:17:00,
2013-02-08 22:22:00,34.0,21.6,29.98,WSW,248,5.4,15.7,60,0.00,,,0.07,WUHU216HW,2013-02-09 03:22:00,
2013-02-08 22:27:00,34.0,21.6,29.98,NW,315,11.0,17.2,60,0.00,,,0.07,WUHU216HW,2013-02-09 03:27:00,
2013-02-08 22:32:00,33.8,21.4,29.98,ENE,68,3.4,17.9,60,0.00,,,0.07,WUHU216HW,2013-02-09 03:32:00,
2013-02-08 22:37:00,33.8,21.8,29.98,SW,225,4.9,17.9,61,0.00,,,0.07,WUHU216HW,2013-02-09 03:37:00,
2013-02-08 22:42:00,33.7,21.6,29.98,WSW,248,7.4,9.8,61,0.00,,,0.07,WUHU216HW,2013-02-09 03:42:00,
2013-02-08 22:47:00,33.7,21.6,29.98,West,270,10.5,11.9,61,0.00,,,0.07,WUHU216HW,2013-02-09 03:47:00,
2013-02-08 22:52:00,33.7,21.2,29.98,NW,315,4.0,18.6,60,0.00,,,0.07,WUHU216HW,2013-02-09 03:52:00,
2013-02-08 22:57:00,33.5,21.4,29.99,WNW,293,4.7,18.6,61,0.00,,,0.07,WUHU216HW,2013-02-09 03:57:00,
2013-02-08 23:02:00,33.5,21.4,29.99,West,270,4.7,14.3,61,0.00,,,0.07,WUHU216HW,2013-02-09 04:02:00,
2013-02-08 23:07:00,33.5,21.4,29.99,West,270,5.4,13.4,61,0.00,,,0.07,WUHU216HW,2013-02-09 04:07:00,
2013-02-08 23:12:00,33.3,21.3,30.00,West,270,14.3,14.3,61,0.00,,,0.07,WUHU216HW,2013-02-09 04:12:00,
2013-02-08 23:17:00,33.3,21.0,29.99,WSW,248,6.5,19.7,60,0.00,,,0.07,WUHU216HW,2013-02-09 04:17:00,
2013-02-08 23:22:00,33.1,21.2,30.00,NW,315,4.7,19.7,61,0.00,,,0.07,WUHU216HW,2013-02-09 04:22:00,
2013-02-08 23:27:00,32.9,21.0,30.00,WSW,248,8.5,19.9,61,0.00,,,0.07,WUHU216HW,2013-02-09 04:27:00,
2013-02-08 23:32:00,32.8,20.8,30.00,West,270,7.6,19.9,61,0.00,,,0.07,WUHU216HW,2013-02-09 04:32:00,
2013-02-08 23:37:00,32.8,21.2,30.00,WNW,293,7.6,19.2,62,0.00,,,0.07,WUHU216HW,2013-02-09 04:37:00,
2013-02-08 23:42:00,32.8,21.2,30.00,WNW,293,8.3,13.9,62,0.00,,,0.07,WUHU216HW,2013-02-09 04:42:00,
2013-02-08 23:47:00,32.6,21.0,30.00,West,270,11.2,15.2,62,0.00,,,0.07,WUHU216HW,2013-02-09 04:47:00,
2013-02-08 23:52:00,32.6,21.0,30.01,NW,315,4.7,15.2,62,0.00,,,0.07,WUHU216HW,2013-02-09 04:52:00,
2013-02-08 23:57:00,32.4,20.9,30.01,NW,315,6.9,17.9,62,0.00,,,0.07,WUHU216HW,2013-02-09 04:57:00,